USA 99 (MILSTAR-1 1)

Last updated on Wed Sep 17 2025 00:02:45 GMT+0000 (Coordinated Universal Time)

1 22988U 94009A 25259.35179491 -.00000212 00000+0 00000+0 0 9997 2 22988 17.2099 30.6379 0001931 191.3251 170.2631 1.00272804 30213
UTC large
Height (km)
Speed (km/s)
/
Latitude / Longitude
Inclination (degrees)
Orbital Period (minutes)
Azimuth
Elevation
Range (km)
Doppler Factor

Next 0 passes for location: London (51.5072 / 0.1276)

Sorry there are no passes over London.